Temp
76 75 74 72 70 70 69 72 73 74 74 74 73 74 72 72 72 71 71 71 70 69
76 76 74 71 71 71 69 72 72 73 74 75 74 74 73 72 72 72 71 71 70 70
77 77 76 74 70 71 71 72 73 73 74 74 74 73 72 72 72 71 71 71 71 70
78 78 77 76 75 73 72 72 73 71 72 73 74 72 73 72 72 72 71 72 71 71
79 79 78 77 78 75 74 72 74 73 72 73 74 73 73 73 75 71 70 70 70 71
79 77 77 77 78 77 76 75 73 72 73 74 74 73 73 74 73 72 72 71 70 71
77 77 78 79 78 77 77 76 73 74 74 74 73 74 74 73 73 72 72 72 72 72
78 78 78 78 78 79 76 77 76 72 72 72 74 76 74 74 73 72 71 71 71 71
73 73 70 69 72 75 75 74 74 72 72 72 74 72 72 73 73 72 71 70 69 72
68 65 65 67 65 67 68 72 73 73 73 72 72 67 69 71 70 71 71 70 70 71
66 65 65 65 66 64 66 66 72 72 73 72 70 65 66 70 68 66 66 67 69 68
67 65 65 64 64 63 64 66 69 68 68 69 68 65 65 65 65 65 65 68 66 65
67 66 66 64 64 64 68 69 69 66 67 67 67 66 64 63 65 64 64 66 67 66
67 66 66 66 66 66 69 68 65 65 65 65 65 64 61 62 66 66 66 67 65 67
MSLP
1011.77 1012.02 1012.16 1012.43 1012.86 1013.28 1013.63 1013.78 1013.96 1014.23 1014.41 1014.70 1014.77 1014.95 1015.48 1016.19 1016.66 1017.01 1017.41 1017.72 1017.99 1018.34
1011.06 1011.46 1011.70 1011.76 1012.14 1012.50 1012.80 1013.11 1013.41 1013.74 1013.99 1014.14 1014.46 1014.81 1015.21 1015.68 1016.15 1016.59 1016.94 1017.28 1017.57 1017.78
1010.40 1010.75 1011.04 1011.43 1011.70 1011.99 1012.29 1012.61 1012.74 1013.10 1013.46 1013.80 1014.00 1014.26 1014.69 1015.17 1015.60 1016.12 1016.44 1016.72 1017.15 1017.36
1010.27 1010.52 1010.91 1011.22 1011.30 1011.62 1011.85 1012.14 1012.41 1012.40 1012.78 1013.24 1013.40 1013.83 1014.19 1014.60 1015.07 1015.52 1015.95 1016.31 1016.63 1016.97
1009.33 1010.04 1010.51 1010.56 1010.60 1011.14 1011.48 1011.87 1012.07 1012.26 1012.40 1012.64 1013.01 1013.32 1013.60 1013.90 1014.33 1014.95 1015.51 1015.87 1016.30 1016.58
1008.79 1009.15 1009.43 1009.84 1010.30 1010.75 1011.08 1011.38 1011.80 1012.13 1012.23 1012.22 1012.54 1012.84 1013.20 1013.36 1013.72 1014.12 1014.55 1014.99 1015.52 1015.90
1008.00 1008.15 1008.54 1008.79 1009.12 1009.73 1010.25 1010.75 1011.19 1011.53 1011.78 1011.79 1011.88 1012.17 1012.54 1012.84 1013.15 1013.58 1013.91 1014.30 1014.67 1014.97
1008.73 1009.37 1008.87 1008.00 1008.05 1008.33 1009.03 1009.49 1010.27 1010.78 1011.06 1011.28 1011.43 1011.69 1012.10 1012.44 1012.72 1013.16 1013.52 1013.85 1014.26 1014.58
1009.15 1009.07 1010.29 1010.85 1010.11 1008.38 1007.75 1008.58 1009.21 1009.92 1010.00 1010.49 1010.73 1010.94 1011.65 1012.23 1012.64 1012.90 1013.27 1013.69 1014.00 1014.11
1007.28 1007.58 1010.30 1011.78 1010.92 1010.85 1009.34 1009.12 1008.70 1008.80 1009.23 1009.64 1010.03 1010.64 1010.73 1011.33 1012.12 1012.44 1012.87 1013.08 1013.26 1013.50
1007.36 1007.39 1007.73 1009.03 1008.81 1010.40 1008.55 1008.29 1007.99 1008.36 1008.52 1008.61 1009.23 1009.63 1010.00 1010.18 1011.03 1011.94 1011.97 1012.18 1012.46 1012.94
1007.02 1007.30 1007.40 1007.75 1006.75 1009.63 1009.96 1009.03 1009.01 1008.21 1008.88 1008.69 1008.44 1008.25 1008.05 1009.73 1010.77 1011.23 1011.41 1011.57 1012.22 1012.28
1006.90 1006.74 1005.93 1007.22 1007.59 1008.21 1008.49 1008.32 1007.89 1008.40 1008.64 1008.19 1007.94 1007.42 1007.65 1008.66 1010.34 1011.21 1011.39 1011.13 1010.85 1010.14
1006.44 1005.97 1005.85 1006.41 1007.07 1007.78 1007.68 1008.22 1008.23 1008.62 1008.11 1008.05 1008.20 1007.80 1007.74 1009.10 1009.81 1010.32 1010.86 1010.84 1010.17 1007.11
Wind_Speed
13 9 9 8 7 5 6 6 6 7 7 7 7 7 6 4 4 6 6 7 5 3
12 12 10 10 7 6 6 6 7 8 9 9 8 7 7 5 6 5 6 6 6 4
14 14 11 8 9 9 8 7 7 8 9 7 8 8 7 5 5 6 4 4 6 5
11 12 10 10 9 10 7 8 8 8 9 10 10 8 8 7 6 8 6 5 7 7
13 12 11 12 12 8 10 9 10 8 9 8 9 8 10 11 9 9 7 7 5 6
12 11 13 13 11 9 10 10 9 7 10 10 10 10 10 10 10 9 9 8 8 8
12 13 13 13 13 11 11 11 9 10 10 10 11 11 11 10 9 9 8 8 9 8
7 8 11 13 13 12 10 11 10 9 8 8 9 8 10 9 10 9 7 6 6 6
5 6 12 14 14 7 8 9 9 11 12 10 9 12 12 9 8 6 6 5 5 6
12 15 14 14 21 15 10 9 11 11 11 11 7 11 15 14 6 6 6 6 5 6
12 14 15 11 15 19 13 17 13 9 11 10 8 10 10 15 10 8 8 7 6 5
11 12 9 9 11 8 10 22 14 3 5 9 10 18 23 13 6 7 8 7 6 8
5 6 6 14 17 21 15 15 8 5 7 9 9 12 5 10 4 6 6 4 7 6
4 4 5 8 10 16 19 14 9 8 7 8 8 6 6 11 6 6 7 7 8 3
Wind_Direction
199 203 204 200 198 196 200 206 180 191 196 203 196 192 177 180 187 187 197 200 205 184
200 207 208 203 203 194 202 210 197 190 204 199 194 195 180 185 193 188 188 199 194 195
202 211 213 204 199 200 208 212 199 187 194 197 204 191 178 180 183 190 197 189 191 200
210 215 210 216 215 200 200 208 219 205 186 195 201 191 190 187 185 195 196 201 196 201
203 212 223 221 221 193 200 208 217 220 213 192 204 195 199 196 197 198 198 204 204 214
214 207 212 221 227 216 212 206 210 212 214 210 202 192 204 202 200 197 199 190 192 208
209 202 215 221 213 204 208 212 206 209 216 215 205 199 197 198 200 208 206 200 202 203
225 267 242 218 217 213 205 210 203 198 209 211 204 205 200 202 204 206 206 201 204 205
130 258 6 358 327 260 198 194 194 204 201 194 210 209 199 198 201 200 202 211 226 231
109 103 100 29 1 322 338 314 215 205 195 205 195 171 175 177 172 170 175 188 207 217
125 119 113 122 53 310 341 301 280 217 205 177 162 170 190 174 167 163 183 198 206 207
172 149 126 139 124 220 245 266 258 218 205 197 189 183 189 170 184 175 194 206 184 215
224 170 156 159 181 202 240 259 270 234 219 252 236 243 186 151 189 219 231 222 221 266
261 237 192 212 195 218 245 254 245 233 219 226 234 264 159 167 189 205 208 213 240 201